| time (UTC) | temp C | wind direction | speed KPH | gust KPH | rain 1hr cm | rain 24hr cm | rain mn cm | humidity % | barometer mb |
| 20260507174558 | 15 | 307 | 24.1 | 38.6 | 0.00 | 0.00 | 0.00 | 64 | 1013.5 |
| 20260507173057 | 17 | 312 | 16.1 | 41.8 | 0.00 | 0.00 | 0.00 | 61 | 1012.5 |
| 20260507171556 | 20 | 260 | 6.4 | 22.5 | 0.00 | 0.00 | 0.00 | 52 | 1011.9 |
| 20260507170056 | 21 | 179 | 4.8 | 12.9 | 0.00 | 0.00 | 0.00 | 47 | 1011.0 |
| 20260507164606 | 21 | 229 | 3.2 | 11.3 | 0.00 | 0.00 | 0.00 | 46 | 1010.8 |
| 20260507163058 | 22 | 190 | 1.6 | 12.9 | 0.00 | 0.00 | 0.00 | 45 | 1010.6 |
| 20260507161558 | 23 | 186 | 1.6 | 14.5 | 0.00 | 0.00 | 0.00 | 42 | 1010.3 |
| 20260507160058 | 22 | 240 | 3.2 | 9.7 | 0.00 | 0.00 | 0.00 | 49 | 1010.3 |
| 20260507154606 | 22 | 70 | 9.7 | 19.3 | 0.00 | 0.00 | 0.00 | 50 | 1010.2 |
| 20260507153057 | 22 | 71 | 4.8 | 20.9 | 0.00 | 0.00 | 0.00 | 51 | 1010.2 |
| 20260507151558 | 22 | 108 | 11.3 | 20.9 | 0.00 | 0.00 | 0.00 | 52 | 1010.2 |
| 20260507150059 | 22 | 106 | 11.3 | 20.9 | 0.00 | 0.00 | 0.00 | 54 | 1010.1 |
| 20260507144559 | 22 | 72 | 11.3 | 20.9 | 0.00 | 0.00 | 0.00 | 52 | 1010.2 |
| 20260507143110 | 22 | 58 | 8.0 | 22.5 | 0.00 | 0.00 | 0.00 | 53 | 1010.2 |
| 20260507141557 | 21 | 70 | 11.3 | 19.3 | 0.00 | 0.00 | 0.00 | 53 | 1010.4 |
| 20260507140055 | 21 | 68 | 11.3 | 20.9 | 0.00 | 0.00 | 0.00 | 54 | 1010.6 |
| 20260507134559 | 21 | 145 | 4.8 | 14.5 | 0.00 | 0.00 | 0.00 | 53 | 1010.6 |
| 20260507133106 | 22 | 95 | 11.3 | 20.9 | 0.00 | 0.00 | 0.00 | 51 | 1010.7 |
| 20260507131612 | 22 | 90 | 6.4 | 20.9 | 0.00 | 0.00 | 0.00 | 50 | 1010.8 |
| 20260507130056 | 22 | 72 | 11.3 | 20.9 | 0.00 | 0.00 | 0.00 | 51 | 1011.1 |
| 20260507124600 | 22 | 24 | 4.8 | 16.1 | 0.00 | 0.00 | 0.00 | 52 | 1011.3 |
| 20260507123056 | 22 | 52 | 3.2 | 14.5 | 0.00 | 0.00 | 0.00 | 47 | 1011.3 |
| 20260507121558 | 22 | 58 | 6.4 | 20.9 | 0.00 | 0.00 | 0.00 | 49 | 1011.5 |
| 20260507120108 | 22 | 0 | 4.8 | 12.9 | 0.00 | 0.00 | 0.00 | 47 | 1011.6 |
| 20260507114607 | 22 | 82 | 1.6 | 11.3 | 0.00 | 0.00 | 0.00 | 51 | 1011.8 |
| 20260507113104 | 21 | 82 | 8.0 | 16.1 | 0.00 | 0.00 | 0.00 | 52 | 1011.8 |
| 20260507111611 | 21 | 214 | 3.2 | 24.1 | 0.00 | 0.00 | 0.00 | 50 | 1012.0 |
| 20260507110059 | 22 | 322 | 0.0 | 8.0 | 0.00 | 0.00 | 0.00 | 42 | 1012.1 |
| 20260507104558 | 22 | 0 | 0.0 | 8.0 | 0.00 | 0.00 | 0.00 | 46 | 1012.2 |
| 20260507103056 | 21 | 166 | 0.0 | 4.8 | 0.00 | 0.00 | 0.00 | 45 | 1012.3 |
| 20260507101558 | 21 | 0 | 1.6 | 6.4 | 0.00 | 0.00 | 0.00 | 46 | 1012.4 |
| 20260507100058 | 21 | 191 | 3.2 | 8.0 | 0.00 | 0.00 | 0.00 | 44 | 1012.5 |
| 20260507094556 | 22 | 243 | 3.2 | 8.0 | 0.00 | 0.00 | 0.00 | 50 | 1012.5 |
| 20260507093106 | 21 | 93 | 1.6 | 6.4 | 0.00 | 0.00 | 0.00 | 55 | 1012.7 |
| 20260507091556 | 21 | 158 | 3.2 | 9.7 | 0.00 | 0.00 | 0.00 | 54 | 1012.8 |
| 20260507090059 | 20 | 0 | 1.6 | 8.0 | 0.00 | 0.00 | 0.00 | 55 | 1012.6 |
| 20260507084557 | 19 | 170 | 4.8 | 9.7 | 0.00 | 0.00 | 0.00 | 60 | 1012.6 |
| 20260507083101 | 17 | 148 | 1.6 | 4.8 | 0.00 | 0.00 | 0.00 | 66 | 1012.8 |
| 20260507081558 | 17 | 0 | 0.0 | 3.2 | 0.00 | 0.00 | 0.00 | 66 | 1012.7 |
| 20260507080114 | 17 | 0 | 0.0 | 6.4 | 0.00 | 0.00 | 0.00 | 69 | 1012.4 |
| 20260507074557 | 16 | 201 | 0.0 | 3.2 | 0.00 | 0.00 | 0.00 | 70 | 1012.5 |
| 20260507073056 | 16 | 208 | 0.0 | 6.4 | 0.00 | 0.00 | 0.00 | 71 | 1012.5 |
| 20260507071610 | 16 | 224 | 3.2 | 6.4 | 0.00 | 0.00 | 0.00 | 71 | 1012.3 |
| 20260507070056 | 15 | 0 | 0.0 | 4.8 | 0.00 | 0.00 | 0.00 | 73 | 1012.1 |
| 20260507064556 | 15 | 188 | 0.0 | 3.2 | 0.00 | 0.00 | 0.00 | 73 | 1012.0 |
| 20260507063057 | 15 | 253 | 0.0 | 4.8 | 0.00 | 0.00 | 0.00 | 75 | 1012.0 |
| 20260507061600 | 15 | 194 | 0.0 | 3.2 | 0.00 | 0.00 | 0.00 | 75 | 1012.0 |
| 20260507060058 | 14 | 0 | 0.0 | 3.2 | 0.00 | 0.00 | 0.00 | 76 | 1011.9 |
| 20260507054602 | 14 | 0 | 0.0 | 1.6 | 0.00 | 0.00 | 0.00 | 78 | 1011.8 |
| 20260507053127 | 14 | 105 | 0.0 | 3.2 | 0.00 | 0.00 | 0.00 | 76 | 1011.7 |
| 20260507051605 | 14 | 221 | 0.0 | 8.0 | 0.00 | 0.00 | 0.00 | 77 | 1011.5 |
| 20260507050104 | 14 | 196 | 1.6 | 8.0 | 0.00 | 0.00 | 0.00 | 77 | 1011.5 |
| 20260507044559 | 14 | 179 | 4.8 | 12.9 | 0.00 | 0.00 | 0.00 | 77 | 1011.3 |
| 20260507043057 | 13 | 181 | 3.2 | 6.4 | 0.00 | 0.00 | 0.00 | 78 | 1011.1 |
| 20260507041558 | 13 | 0 | 0.0 | 0.0 | 0.00 | 0.00 | 0.00 | 79 | 1011.0 |
| 20260507040115 | 13 | 0 | 0.0 | 4.8 | 0.00 | 0.00 | 0.00 | 78 | 1010.9 |
| 20260507034558 | 13 | 208 | 1.6 | 4.8 | 0.00 | 0.00 | 0.00 | 79 | 1010.9 |
| 20260507033100 | 13 | 0 | 1.6 | 4.8 | 0.00 | 0.00 | 0.00 | 79 | 1010.9 |
| 20260507031558 | 14 | 202 | 0.0 | 3.2 | 0.00 | 0.00 | 0.00 | 77 | 1010.9 |
| 20260507030058 | 14 | 196 | 1.6 | 8.0 | 0.00 | 0.00 | 0.00 | 77 | 1011.0 |
| 20260507024604 | 13 | 169 | 0.0 | 3.2 | 0.00 | 0.00 | 0.00 | 78 | 1010.9 |
| 20260507023057 | 14 | 214 | 1.6 | 8.0 | 0.00 | 0.00 | 0.00 | 76 | 1010.8 |
| 20260507021555 | 14 | 193 | 1.6 | 4.8 | 0.00 | 0.00 | 0.00 | 76 | 1010.7 |
| 20260507020058 | 14 | 158 | 0.0 | 6.4 | 0.00 | 0.00 | 0.00 | 77 | 1010.6 |
| 20260507014610 | 14 | 175 | 1.6 | 8.0 | 0.00 | 0.00 | 0.00 | 77 | 1010.8 |
| 20260507013057 | 14 | 264 | 1.6 | 4.8 | 0.00 | 0.00 | 0.00 | 77 | 1010.7 |
| 20260507011604 | 15 | 229 | 1.6 | 6.4 | 0.00 | 0.00 | 0.00 | 76 | 1010.7 |
| 20260507010109 | 15 | 189 | 1.6 | 6.4 | 0.00 | 0.00 | 0.00 | 75 | 1010.6 |
| 20260507004611 | 15 | 200 | 1.6 | 8.0 | 0.00 | 0.00 | 0.00 | 74 | 1010.8 |
| 20260507003102 | 15 | 146 | 3.2 | 9.7 | 0.00 | 0.00 | 0.00 | 73 | 1010.7 |
| 20260507001557 | 15 | 214 | 3.2 | 9.7 | 0.00 | 0.00 | 0.00 | 73 | 1010.7 |
| 20260507000056 | 15 | 192 | 6.4 | 12.9 | 0.00 | 0.00 | 0.00 | 74 | 1010.9 |
| 20260506234559 | 15 | 183 | 1.6 | 8.0 | 0.00 | 0.00 | 0.00 | 74 | 1011.0 |
| 20260506233058 | 15 | 201 | 1.6 | 9.7 | 0.00 | 0.00 | 0.00 | 73 | 1011.0 |
| 20260506231601 | 16 | 195 | 3.2 | 9.7 | 0.00 | 0.00 | 0.00 | 72 | 1010.9 |
| 20260506230059 | 16 | 155 | 4.8 | 12.9 | 0.00 | 0.00 | 0.00 | 71 | 1010.9 |
| 20260506224600 | 16 | 193 | 1.6 | 9.7 | 0.00 | 0.00 | 0.00 | 71 | 1010.8 |
| 20260506223058 | 16 | 0 | 1.6 | 4.8 | 0.00 | 0.00 | 0.00 | 71 | 1010.7 |
| 20260506221559 | 16 | 217 | 0.0 | 9.7 | 0.00 | 0.00 | 0.00 | 70 | 1010.6 |
| 20260506220056 | 16 | 0 | 0.0 | 9.7 | 0.00 | 0.00 | 0.00 | 70 | 1010.4 |
| 20260506214604 | 16 | 233 | 4.8 | 16.1 | 0.00 | 0.00 | 0.00 | 70 | 1010.3 |
| 20260506213059 | 16 | 229 | 3.2 | 9.7 | 0.00 | 0.00 | 0.00 | 69 | 1010.5 |
| 20260506211605 | 16 | 181 | 0.0 | 1.6 | 0.00 | 0.00 | 0.00 | 69 | 1010.2 |
| 20260506210057 | 16 | 0 | 0.0 | 4.8 | 0.00 | 0.00 | 0.00 | 69 | 1010.1 |
| 20260506204556 | 17 | 205 | 3.2 | 9.7 | 0.00 | 0.00 | 0.00 | 68 | 1010.1 |
| 20260506203057 | 17 | 197 | 3.2 | 11.3 | 0.00 | 0.00 | 0.00 | 68 | 1010.0 |
| 20260506201557 | 17 | 192 | 1.6 | 12.9 | 0.00 | 0.00 | 0.00 | 68 | 1009.9 |
| 20260506200106 | 16 | 262 | 1.6 | 8.0 | 0.00 | 0.00 | 0.00 | 68 | 1009.9 |
| 20260506194606 | 16 | 196 | 0.0 | 4.8 | 0.00 | 0.00 | 0.00 | 68 | 1009.9 |
| 20260506193059 | 16 | 0 | 1.6 | 4.8 | 0.00 | 0.00 | 0.00 | 68 | 1009.7 |
| 20260506191608 | 16 | 0 | 0.0 | 3.2 | 0.00 | 0.00 | 0.00 | 68 | 1009.5 |
| 20260506190058 | 17 | 158 | 0.0 | 12.9 | 0.00 | 0.00 | 0.00 | 67 | 1009.2 |
| 20260506184558 | 17 | 201 | 0.0 | 9.7 | 0.00 | 0.00 | 0.00 | 67 | 1009.1 |
| 20260506183120 | 17 | 124 | 3.2 | 9.7 | 0.00 | 0.00 | 0.00 | 66 | 1008.9 |
| 20260506181602 | 17 | 0 | 0.0 | 6.4 | 0.00 | 0.00 | 0.00 | 67 | 1008.8 |
| 20260506180114 | 17 | 221 | 4.8 | 12.9 | 0.00 | 0.00 | 0.00 | 66 | 1008.8 |